Location: Del Amo
(33.8464°N, 118.2104°W)
Time: 19:47:11
(UTC+00:00)

Vanguard 1 Rocket - Pass Details

Date: 15 September 2024
Orbit: 650 x 4218 km, 34.3° (Epoch: 04 October)

Event Time Altitude Azimuth Distance (km) Brightness Sun altitude
Rises 19:56:53 0° 286° (WNW) 8,446 12.3 58.7°
Reaches altitude 10° 20:05:11 10° 273° (W) 7,388 12.2 58.5°
Maximum altitude 20:20:57 21° 234° (SW) 5,796 12.2 57.8°
Drops below altitude 10° 20:33:28 10° 192° (SSW) 5,684 12.2 57.0°
Sets 20:38:46 0° 177° (S) 6,116 12.1 56.5°
